Igor I Sikorsky Memorial Airport
KBDR : now visible

Airfield :











YOU CAN JOIN US ON...

 
LOGIN :

Register | Disclaimer

   EN    FR    IT 

 









Legend :    VFR   Marginal VFR   IFR   Intensive IFR   Very Intensive IFR
Visi :
Ceiling :
>= 8 km
>= 3000ft
5 to 8 km
1000 to 3000 ft
1500m to 5 km
500 to 1000 ft
800 to 1500m
200 to 500 ft
< 800m
< 200 ft
Symbols :   Thunderstorms  Fog  Heavy snow  Heavy precipitations  Wind > 20 kt






- Airport Elevation : 9 ft
- IATA code : BDR


KBDR - Igor I Sikorsky Memorial

CURRENT METAR :
  • 282152Z 33011KT 10SM CLR 08/00 A2984 RMK AO2 SLP105 T00830000

EXPIRED METARs :
  • 282052Z 32012G17KT 10SM CLR 09/01 A2981 RMK AO2 SLP094 T00940006 53046
  • 281952Z 34010G20KT 10SM FEW045 11/01 A2976 RMK AO2 SLP078 T01110011

TAF KBDR
Valid from the 28 at 21:00 until the 29 at 18:00 UTC


282031Z 2821/2918 33012G21KT P6SM SCT050
FM282200 34010KT P6SM FEW050
FM290300 35006KT P6SM SKC
FM291000 VRB03KT P6SM SKC
FM291600 12005KT P6SM FEW050
KZBW FIR / North America



MET'MAP, your aeronautical weather chart ! - Copyright ORBIFLY December 2007 - Disclaimer

ORBIFLY MET'MAP TEAM :

Programming & Development : Alexandra Zaïnal
Original concept : Baudouin d'Aumeries
Technical & hardware support : Manuel Goepfert
Assistance : Marc-Olivier Méhu




SOURCES & CREDITS :

   NOAA       Earth
Advisory